Time,TemperatureF,DewpointF,PressureIn,WindDirection,WindDirectionDegrees,WindSpeedMPH,WindSpeedGustMPH,Humidity,HourlyPrecipIn,Conditions,Clouds,dailyrainin,SoftwareType,DateUTC
2013-07-29 00:18:00,56.3,55.7,29.35,SW,225,0.0,-999.0,98,-99.99,,,0.00,Acu-Link.com,2013-07-29 05:18:00,
2013-07-29 00:45:00,55.8,55.2,29.35,South,180,0.0,-999.0,98,-99.99,,,0.00,Acu-Link.com,2013-07-29 05:45:00,
2013-07-29 01:00:00,55.6,55.0,29.36,SSW,202,0.0,-999.0,98,-99.99,,,0.00,Acu-Link.com,2013-07-29 06:00:00,
2013-07-29 01:15:00,55.8,55.2,29.36,ESE,112,0.0,-999.0,98,-99.99,,,0.00,Acu-Link.com,2013-07-29 06:15:00,
2013-07-29 01:31:00,55.0,54.4,29.36,ESE,112,0.0,-999.0,98,-99.99,,,0.00,Acu-Link.com,2013-07-29 06:31:00,
2013-07-29 01:46:00,54.5,53.9,29.36,SE,135,0.0,-999.0,98,-99.99,,,0.00,Acu-Link.com,2013-07-29 06:46:00,
2013-07-29 02:21:00,53.8,53.2,29.36,SSW,202,0.0,-999.0,98,-99.99,,,0.00,Acu-Link.com,2013-07-29 07:21:00,
2013-07-29 02:37:00,53.6,53.0,29.36,SSW,202,0.0,-999.0,98,-99.99,,,0.00,Acu-Link.com,2013-07-29 07:37:00,
2013-07-29 02:52:00,53.6,53.0,29.37,SW,225,0.0,-999.0,98,-99.99,,,0.00,Acu-Link.com,2013-07-29 07:52:00,
2013-07-29 03:07:00,52.5,52.0,29.37,East,90,0.0,-999.0,98,-99.99,,,0.00,Acu-Link.com,2013-07-29 08:07:00,
2013-07-29 03:22:00,52.7,52.2,29.37,South,180,0.0,-999.0,98,-99.99,,,0.00,Acu-Link.com,2013-07-29 08:22:00,
2013-07-29 03:37:00,52.7,52.2,29.37,SSW,202,0.0,-999.0,98,-99.99,,,0.00,Acu-Link.com,2013-07-29 08:37:00,
2013-07-29 03:52:00,52.7,52.2,29.37,SSW,202,0.0,-999.0,98,-99.99,,,0.00,Acu-Link.com,2013-07-29 08:52:00,
2013-07-29 04:07:00,52.2,51.7,29.37,SSW,202,0.0,-999.0,98,-99.99,,,0.00,Acu-Link.com,2013-07-29 09:07:00,
2013-07-29 04:22:00,52.7,52.2,29.38,SSW,202,0.0,-999.0,98,-99.99,,,0.00,Acu-Link.com,2013-07-29 09:22:00,
2013-07-29 04:37:00,52.2,48.8,29.37,SSW,202,0.0,-999.0,88,-99.99,,,0.00,Acu-Link.com,2013-07-29 09:37:00,
2013-07-29 04:52:00,51.8,51.3,29.37,South,180,0.0,-999.0,98,-99.99,,,0.00,Acu-Link.com,2013-07-29 09:52:00,
2013-07-29 05:08:00,53.2,52.6,29.37,South,180,0.0,-999.0,98,-99.99,,,0.00,Acu-Link.com,2013-07-29 10:08:00,
2013-07-29 05:23:00,52.9,48.8,29.38,SSW,202,0.0,-999.0,86,-99.99,,,0.00,Acu-Link.com,2013-07-29 10:23:00,
2013-07-29 05:38:00,53.2,48.2,29.38,SSW,202,0.0,-999.0,83,-99.99,,,0.00,Acu-Link.com,2013-07-29 10:38:00,
2013-07-29 06:08:00,52.7,45.0,29.38,SSW,202,0.0,-999.0,75,-99.99,,,0.00,Acu-Link.com,2013-07-29 11:08:00,
2013-07-29 06:23:00,53.1,44.7,29.39,South,180,0.0,-999.0,73,-99.99,,,0.00,Acu-Link.com,2013-07-29 11:23:00,
2013-07-29 06:38:00,53.4,43.9,29.40,SSW,202,0.0,-999.0,70,-99.99,,,0.00,Acu-Link.com,2013-07-29 11:38:00,
2013-07-29 07:08:00,55.0,44.6,29.40,South,180,0.0,-999.0,68,-99.99,,,0.00,Acu-Link.com,2013-07-29 12:08:00,
2013-07-29 07:25:00,55.6,44.8,29.40,SE,135,0.0,-999.0,67,-99.99,,,0.00,Acu-Link.com,2013-07-29 12:25:00,
2013-07-29 07:42:00,56.5,44.9,29.40,SSE,157,0.0,-999.0,65,-99.99,,,0.00,Acu-Link.com,2013-07-29 12:42:00,
2013-07-29 17:00:00,73.4,63.4,29.37,ESE,112,0.0,-999.0,71,-99.99,,,0.00,Acu-Link.com,2013-07-29 22:00:00,
2013-07-29 17:15:00,73.0,63.8,29.37,SW,225,0.0,-999.0,73,-99.99,,,0.00,Acu-Link.com,2013-07-29 22:15:00,
2013-07-29 17:30:00,74.7,65.8,29.37,SSE,157,0.0,-999.0,74,-99.99,,,0.00,Acu-Link.com,2013-07-29 22:30:00,
2013-07-29 17:45:00,73.8,64.2,29.36,SSE,157,0.0,-999.0,72,-99.99,,,0.00,Acu-Link.com,2013-07-29 22:45:00,
2013-07-29 18:00:00,73.9,64.7,29.36,NW,315,0.0,-999.0,73,-99.99,,,0.00,Acu-Link.com,2013-07-29 23:00:00,
2013-07-29 18:15:00,71.4,63.8,29.36,South,180,0.0,-999.0,77,-99.99,,,0.00,Acu-Link.com,2013-07-29 23:15:00,
2013-07-29 18:30:00,71.8,64.6,29.36,SW,225,0.0,-999.0,78,-99.99,,,0.00,Acu-Link.com,2013-07-29 23:30:00,
2013-07-29 18:45:00,71.4,63.4,29.35,SE,135,0.0,-999.0,76,-99.99,,,0.00,Acu-Link.com,2013-07-29 23:45:00,
2013-07-29 19:00:00,71.1,63.5,29.34,SSW,202,0.0,-999.0,77,-99.99,,,0.00,Acu-Link.com,2013-07-30 00:00:00,
2013-07-29 19:49:00,68.4,63.0,29.34,South,180,0.0,-999.0,83,-99.99,,,0.00,Acu-Link.com,2013-07-30 00:49:00,
2013-07-29 20:04:00,68.0,63.0,29.35,South,180,0.0,-999.0,84,-99.99,,,0.00,Acu-Link.com,2013-07-30 01:04:00,
2013-07-29 20:34:00,67.1,63.1,29.35,SSW,202,0.0,-999.0,87,-99.99,,,0.00,Acu-Link.com,2013-07-30 01:34:00,
2013-07-29 20:49:00,66.7,63.0,29.35,SSE,157,0.0,-999.0,88,-99.99,,,0.00,Acu-Link.com,2013-07-30 01:49:00,
2013-07-29 21:04:00,66.6,66.0,29.35,SSE,157,0.0,-999.0,98,-99.99,,,0.00,Acu-Link.com,2013-07-30 02:04:00,
2013-07-29 21:19:00,66.4,65.8,29.36,SW,225,0.0,-999.0,98,-99.99,,,0.00,Acu-Link.com,2013-07-30 02:19:00,
2013-07-29 21:35:00,66.2,65.6,29.37,SSE,157,0.0,-999.0,98,-99.99,,,0.00,Acu-Link.com,2013-07-30 02:35:00,
2013-07-29 21:50:00,66.2,65.6,29.37,WNW,292,0.0,-999.0,98,-99.99,,,0.00,Acu-Link.com,2013-07-30 02:50:00,
2013-07-29 22:05:00,66.0,65.4,29.37,SW,225,0.0,-999.0,98,-99.99,,,0.00,Acu-Link.com,2013-07-30 03:05:00,
2013-07-29 22:20:00,65.8,65.2,29.38,SE,135,0.0,-999.0,98,-99.99,,,0.00,Acu-Link.com,2013-07-30 03:20:00,
2013-07-29 22:35:00,65.7,65.1,29.39,SSE,157,0.0,-999.0,98,-99.99,,,0.00,Acu-Link.com,2013-07-30 03:35:00,
2013-07-29 22:50:00,65.3,64.7,29.38,WSW,247,0.0,-999.0,98,-99.99,,,0.00,Acu-Link.com,2013-07-30 03:50:00,
2013-07-29 23:05:00,64.4,63.8,29.38,South,180,0.0,-999.0,98,-99.99,,,0.00,Acu-Link.com,2013-07-30 04:05:00,
2013-07-29 23:20:00,63.9,63.3,29.37,SSE,157,0.0,-999.0,98,-99.99,,,0.00,Acu-Link.com,2013-07-30 04:20:00,
2013-07-29 23:37:00,63.7,63.1,29.37,South,180,0.0,-999.0,98,-99.99,,,0.00,Acu-Link.com,2013-07-30 04:37:00,
2013-07-29 23:52:00,63.1,62.5,29.36,WSW,247,0.0,-999.0,98,-99.99,,,0.00,Acu-Link.com,2013-07-30 04:52:00,